KD5HIA Weather Reports


Display with metric or nautical units.
time (UTC)temp
F
wind
direction
speed
MPH
gust
MPH
rain 1hr
in
rain 24hr
in
rain mn
in
humidity
%
barometer
mb
20260502123017 51 0.0 2.0 0.00 0.28 0.00 91 1022.8
20260502122017 50 0.0 0.0 0.00 0.28 0.00 91 1022.8
20260502121017 51 293 1.0 3.0 0.00 0.28 0.00 90 1022.8
20260502115017 51 270 1.0 2.0 0.00 0.28 0.00 90 1022.6
20260502114017 51 270 2.0 3.0 0.00 0.28 0.00 90 1022.6
20260502113017 51 293 1.0 2.0 0.00 0.29 0.00 91 1022.6
20260502112017 51 270 1.0 2.0 0.00 0.31 0.00 91 1022.5
20260502111017 51 248 1.0 2.0 0.00 0.32 0.00 90 1022.3
20260502110017 51 270 1.0 2.0 0.00 0.33 0.00 90 1022.1
20260502105018 50 270 2.0 3.0 0.00 0.34 0.00 90 1021.8
20260502104017 50 248 2.0 3.0 0.00 0.35 0.00 91 1021.8
20260502103017 50 0.0 0.0 0.00 0.36 0.00 91 1021.6
20260502102017 50 270 1.0 2.0 0.00 0.36 0.00 91 1021.5
20260502101017 51 293 1.0 2.0 0.00 0.37 0.00 91 1021.2
20260502091017 52 0.0 0.0 0.00 0.38 0.00 90 1020.6
20260502071017 51 0.0 0.0 0.00 0.38 0.00 90 1020.6
20260502070017 50 0.0 0.0 0.00 0.38 0.00 91 1020.7
20260502065017 50 0.0 0.0 0.00 0.38 0.00 91 1020.6
20260502064018 50 0.0 0.0 0.00 0.38 0.00 91 1020.6
20260502063017 49 0.0 2.0 0.00 0.39 0.00 92 1020.6
20260502062017 49 0.0 0.0 0.00 0.39 0.00 91 1020.5
20260502061017 49 0.0 0.0 0.00 0.39 0.00 89 1020.4
20260502060018 49 0.0 0.0 0.00 0.39 0.00 89 1020.4
20260502055017 49 0.0 0.0 0.00 0.39 0.00 89 1020.4
20260502054017 49 0.0 0.0 0.00 0.39 0.00 89 1020.4
20260502053017 49 0.0 0.0 0.00 0.39 0.00 89 1020.4
20260502052018 50 0.0 0.0 0.00 0.39 0.00 88 1020.4
20260502051017 49 0.0 0.0 0.00 0.39 0.00 88 1020.4
20260502050018 49 0.0 0.0 0.00 0.39 0.39 88 1020.3
20260502045017 50 0.0 0.0 0.00 0.39 0.39 86 1020.3
20260502044017 50 0.0 0.0 0.00 0.39 0.39 85 1020.4
20260502043017 50 0.0 0.0 0.00 0.39 0.39 84 1020.3
20260502042017 51 0.0 0.0 0.00 0.39 0.39 83 1020.1
20260502041017 50 0.0 1.0 0.00 0.39 0.39 84 1019.9
20260502040017 51 0.0 0.0 0.00 0.39 0.39 82 1020.0
20260502035017 52 68 2.0 3.0 0.00 0.39 0.39 81 1019.9
20260502034017 52 68 3.0 4.0 0.00 0.39 0.39 81 1019.7
20260502033018 52 68 4.0 6.0 0.00 0.39 0.39 80 1019.5
20260502032017 53 68 3.0 5.0 0.00 0.39 0.39 80 1019.6
20260502031017 53 68 4.0 7.0 0.00 0.39 0.39 78 1019.5
20260502030017 54 68 4.0 5.0 0.00 0.39 0.39 77 1019.5
20260502025018 54 45 3.0 6.0 0.00 0.39 0.39 77 1019.4
20260502024017 54 68 5.0 8.0 0.00 0.39 0.39 76 1019.2
20260502023018 54 68 5.0 8.0 0.00 0.39 0.39 75 1019.2
20260502022017 55 68 5.0 6.0 0.00 0.39 0.39 74 1019.1
20260502021017 55 68 4.0 9.0 0.00 0.39 0.39 73 1019.2
20260502020021 55 68 5.0 8.0 0.00 0.39 0.39 74 1018.9
20260502015022 55 68 5.0 10.0 0.00 0.39 0.39 71 1018.7
20260502014021 55 45 5.0 9.0 0.00 0.39 0.39 71 1018.4
20260502013017 56 68 7.0 12.0 0.00 0.39 0.39 71 1018.4
20260502012018 56 68 7.0 10.0 0.00 0.39 0.39 71 1018.2
20260502011018 56 68 8.0 12.0 0.00 0.39 0.39 70 1018.1
20260502010018 56 68 8.0 13.0 0.00 0.39 0.39 69 1017.8
20260502005018 57 68 6.0 11.0 0.00 0.39 0.39 69 1017.6
20260502004017 57 68 9.0 14.0 0.00 0.39 0.39 68 1017.5
20260502003018 57 45 6.0 12.0 0.00 0.39 0.39 67 1017.4
20260502002018 57 45 6.0 12.0 0.00 0.39 0.39 68 1017.2
20260502001017 57 45 7.0 14.0 0.00 0.39 0.39 69 1017.2
20260502000017 57 45 7.0 15.0 0.00 0.39 0.39 72 1017.0
20260501235017 57 45 8.0 16.0 0.00 0.39 0.39 75 1016.8
20260501234017 57 45 8.0 15.0 0.00 0.39 0.39 79 1016.8
20260501233018 57 68 8.0 14.0 0.00 0.39 0.39 78 1016.5
20260501232018 57 68 11.0 16.0 0.00 0.39 0.39 78 1016.4
20260501231018 57 68 11.0 16.0 0.00 0.39 0.39 78 1016.5
20260501230241 57 68 9.0 15.0 0.00 0.39 0.39 76 1016.4
20260501225018 57 45 7.0 14.0 0.00 0.39 0.39 77 1016.2
20260501224017 58 45 9.0 13.0 0.00 0.39 0.39 76 1016.1
20260501223018 58 45 7.0 16.0 0.00 0.39 0.39 76 1015.9
20260501222017 57 68 11.0 20.0 0.00 0.39 0.39 75 1015.5
20260501221017 56 45 7.0 11.0 0.00 0.39 0.39 77 1015.5
20260501220017 56 68 14.0 21.0 0.00 0.39 0.39 81 1015.6
20260501215017 57 68 9.0 16.0 0.00 0.39 0.39 81 1015.7
20260501214017 57 68 15.0 21.0 0.00 0.39 0.39 81 1015.6
20260501213018 57 68 15.0 21.0 0.00 0.39 0.39 79 1015.7
20260501212017 58 68 15.0 22.0 0.00 0.39 0.39 79 1015.4
20260501211517 58 68 19.0 28.0 0.00 0.39 0.39 78 1015.4
20260501210517 57 68 14.0 25.0 0.00 0.39 0.39 80 1015.3
20260501205517 57 68 16.0 28.0 0.00 0.39 0.39 80 1015.4
20260501204517 57 68 14.0 27.0 0.00 0.39 0.39 83 1015.6
20260501203518 57 68 14.0 22.0 0.00 0.39 0.39 85 1016.0
20260501202517 56 45 14.0 25.0 0.01 0.39 0.39 84 1016.1
20260501201517 56 45 12.0 24.0 0.01 0.39 0.39 86 1016.4
20260501200517 56 45 11.0 19.0 0.01 0.39 0.39 85 1016.5
20260501195518 55 45 10.0 19.0 0.02 0.39 0.39 88 1016.6
20260501194518 54 45 10.0 17.0 0.02 0.39 0.39 89 1016.6
20260501193517 53 45 8.0 13.0 0.03 0.39 0.39 91 1016.7
20260501192517 53 23 7.0 12.0 0.03 0.38 0.38 92 1016.9
20260501191518 53 23 8.0 13.0 0.06 0.38 0.38 92 1017.0
20260501190518 53 23 5.0 11.0 0.08 0.38 0.38 92 1017.1
20260501185518 53 23 7.0 11.0 0.09 0.37 0.37 93 1017.1
20260501184517 53 23 7.0 10.0 0.11 0.36 0.36 93 1017.2
20260501183518 53 23 6.0 11.0 0.10 0.35 0.35 93 1017.1
20260501182518 54 0 4.0 9.0 0.09 0.35 0.35 93 1017.3
20260501181518 54 23 5.0 9.0 0.07 0.32 0.32 92 1017.2
20260501180517 54 45 6.0 14.0 0.05 0.30 0.30 91 1017.0
20260501175518 54 45 4.0 6.0 0.02 0.28 0.28 91 1016.9
20260501174518 54 23 5.0 9.0 0.00 0.25 0.25 91 1016.7
20260501173517 55 23 5.0 10.0 0.01 0.25 0.25 92 1016.5
20260501172517 55 45 9.0 19.0 0.02 0.25 0.25 92 1016.1
20260501171518 56 45 9.0 22.0 0.03 0.25 0.25 93 1015.8
20260501170517 55 68 12.0 20.0 0.03 0.25 0.25 93 1015.3
20260501165518 55 68 12.0 19.0 0.04 0.25 0.25 93 1015.9
20260501164518 56 68 12.0 19.0 0.05 0.25 0.25 93 1015.7
20260501163517 55 68 12.0 16.0 0.04 0.24 0.24 93 1015.8
20260501162517 55 68 9.0 12.0 0.02 0.23 0.23 94 1015.9
20260501161518 55 68 9.0 14.0 0.02 0.22 0.22 93 1016.1
20260501160517 55 45 9.0 16.0 0.05 0.22 0.22 94 1015.6
20260501155518 55 45 7.0 17.0 0.08 0.21 0.21 94 1015.9
20260501154517 55 45 5.0 11.0 0.08 0.20 0.20 94 1016.0
20260501153517 55 45 6.0 12.0 0.08 0.20 0.20 94 1015.3
20260501152518 55 68 11.0 21.0 0.08 0.20 0.20 94 1015.5
20260501151517 55 68 12.0 21.0 0.08 0.20 0.20 94 1014.8
20260501150517 55 68 9.0 19.0 0.06 0.17 0.17 94 1015.7